Weather History for Golden Triangle, MS

Change the Weather History Date:

Saturday, January 19, 2013

  Actual Average Record
Temperature  
Mean Temperature 42 °F -  
Max Temperature 57 °F 52 °F 66 °F (1999)
Min Temperature 28 °F 33 °F 17 °F (2003)
Degree Days  
Heating Degree Days 22    
Moisture  
Dew Point 31 °F    
Average Humidity 77    
Maximum Humidity 93    
Minimum Humidity 38    
Precipitation  
Precipitation 0.00 in - - ()
Sea Level Pressure  
Sea Level Pressure 30.33 in    
Wind  
Wind Speed 2 mph (South)    
Max Wind Speed 9 mph    
Max Gust Speed -    
Visibility 10 miles    
Events      
Averages and records for this station are not official NWS values.
T = Trace of Precipitation, MM = Missing Value Source: NWS Daily Summary

Daily Weather History Graph

Daily Weather History Graph

Search for Another Location

Airport:

Trip Planner

Search our weather history database for the weather conditions in past years. The results will help you decide how hot, cold, wet, or windy it might be!

Date:

Astronomy

Jan. 19, 2013 Rise Set
Actual Time 6:57 AM CST 5:13 PM CST
Civil Twilight 6:30 AM CST 5:40 PM CST
Nautical Twilight 6:00 AM CST 6:10 PM CST
Astronomical Twilight 5:30 AM CST 6:40 PM CST
Moon 11:36 AM CST (1/19) 12:35 AM CST (1/19)
Length of Visible Light 11h 09m
Length of Day
10h 16m
First Quarter, 57% of the Moon is Illuminated
Jan 19
First Quarter
Jan 26
Full
Feb 3
Last Quarter
Feb 10
New
Feb 17
First Quarter

Hourly Weather History & Observations

Time (CST) Temp. Windchill Dew Point Humidity Pressure Visibility Wind Dir Wind Speed Gust Speed Precip Events Conditions
12:15 AM 33.8 °F - 28.4 °F 81% 30.40 in 10.0 mi Calm Calm - N/A   Clear
12:35 AM 32.0 °F - 28.4 °F 87% 30.40 in 10.0 mi Calm Calm - N/A   Clear
12:55 AM 32.0 °F - 28.4 °F 87% 30.40 in 10.0 mi Calm Calm - N/A   Clear
1:15 AM 32.0 °F - 28.4 °F 87% 30.41 in 10.0 mi Calm Calm - N/A   Clear
1:35 AM 30.2 °F - 28.4 °F 93% 30.41 in 10.0 mi Calm Calm - N/A   Clear
1:55 AM 30.2 °F - 26.6 °F 86% 30.41 in 10.0 mi Calm Calm - N/A   Clear
2:15 AM 30.2 °F - 26.6 °F 86% 30.41 in 10.0 mi Calm Calm - N/A   Clear
2:35 AM 30.2 °F - 26.6 °F 86% 30.40 in 10.0 mi Calm Calm - N/A   Clear
2:55 AM 30.2 °F 26.7 °F 26.6 °F 86% 30.40 in 10.0 mi SE 3.5 mph - N/A   Clear
3:15 AM 32.0 °F 25.6 °F 28.4 °F 87% 30.39 in 10.0 mi SE 6.9 mph - N/A   Clear
3:35 AM 33.8 °F 29.6 °F 28.4 °F 81% 30.38 in 10.0 mi SSE 4.6 mph - N/A   Clear
3:55 AM 30.2 °F - 26.6 °F 86% 30.38 in 10.0 mi Calm Calm - N/A   Clear
4:15 AM 30.2 °F - 26.6 °F 86% 30.38 in 10.0 mi Calm Calm - N/A   Clear
4:36 AM 28.4 °F - 26.6 °F 93% 30.38 in 10.0 mi Calm Calm - N/A   Clear
4:55 AM 28.4 °F 24.6 °F 26.6 °F 93% 30.38 in 10.0 mi South 3.5 mph - N/A   Clear
5:15 AM 28.4 °F 23.3 °F 26.6 °F 93% 30.38 in 10.0 mi South 4.6 mph - N/A   Clear
5:35 AM 30.2 °F 26.7 °F 28.4 °F 93% 30.38 in 10.0 mi South 3.5 mph - N/A   Clear
5:50 AM 30.2 °F - 26.6 °F 86% 30.38 in 10.0 mi Calm Calm - N/A   Clear
7:50 AM 33.8 °F 29.6 °F 28.4 °F 81% 30.40 in 10.0 mi SSE 4.6 mph - N/A   Clear
8:50 AM 37.4 °F 32.1 °F 33.8 °F 87% 30.40 in 10.0 mi South 6.9 mph - N/A   Clear
9:50 AM 44.6 °F 39.7 °F 35.6 °F 71% 30.41 in 10.0 mi South 9.2 mph - N/A   Clear
10:50 AM 50.0 °F - 35.6 °F 58% 30.39 in 10.0 mi South 9.2 mph - N/A   Clear
12:50 PM 57.2 °F - 35.6 °F 44% 30.30 in 10.0 mi SW 9.2 mph - N/A   Clear
1:45 PM 57.2 °F - 35.6 °F 44% 30.28 in 10.0 mi SSW 5.8 mph - N/A   Clear
2:45 PM 57.2 °F - 35.6 °F 44% 30.26 in 10.0 mi South 4.6 mph - N/A   Clear
3:45 PM 57.2 °F - 32.0 °F 38% 30.26 in 10.0 mi SSW 4.6 mph - N/A   Clear
4:45 PM 53.6 °F - 35.6 °F 51% 30.25 in 10.0 mi SE 6.9 mph - N/A   Clear
5:45 PM 51.8 °F - 35.6 °F 54% 30.25 in 10.0 mi SSE 5.8 mph - N/A   Clear
6:50 PM 46.4 °F 43.5 °F 35.6 °F 66% 30.25 in 10.0 mi South 5.8 mph - N/A   Clear
7:50 PM 42.8 °F 38.6 °F 35.6 °F 76% 30.26 in 10.0 mi South 6.9 mph - N/A   Clear
7:55 PM 42.8 °F 38.6 °F 35.6 °F 76% 30.26 in 10.0 mi South 6.9 mph - N/A   Clear
8:15 PM 42.8 °F 40.1 °F 35.6 °F 76% 30.26 in 10.0 mi South 4.6 mph - N/A   Clear
8:35 PM 42.8 °F 40.1 °F 35.6 °F 76% 30.26 in 10.0 mi South 4.6 mph - N/A   Clear
8:55 PM 42.8 °F 41.1 °F 35.6 °F 76% 30.25 in 10.0 mi South 3.5 mph - N/A   Clear
9:15 PM 42.8 °F 40.1 °F 33.8 °F 70% 30.25 in 10.0 mi South 4.6 mph - N/A   Clear
9:35 PM 42.8 °F - 35.6 °F 76% 30.25 in 10.0 mi Calm Calm - N/A   Clear
9:55 PM 39.2 °F 35.9 °F 33.8 °F 81% 30.24 in 10.0 mi South 4.6 mph - N/A   Clear
10:15 PM 37.4 °F 33.8 °F 33.8 °F 87% 30.24 in 10.0 mi South 4.6 mph - N/A   Clear
10:35 PM 39.2 °F 35.9 °F 33.8 °F 81% 30.24 in 10.0 mi South 4.6 mph - N/A   Clear
10:55 PM 39.2 °F - 33.8 °F 81% 30.24 in 10.0 mi Calm Calm - N/A   Clear
11:15 PM 39.2 °F - 33.8 °F 81% 30.24 in 10.0 mi Calm Calm - N/A   Clear
11:35 PM 39.2 °F - 33.8 °F 81% 30.24 in 10.0 mi Calm Calm - N/A   Clear
11:55 PM 37.4 °F - 32.0 °F 81% 30.24 in 10.0 mi Calm Calm - N/A   Clear